World > North America > United States > New York

Amawalk, New York Regional Weather

Lat: 41.29N, Lon: 73.77W
Wx Zone: NYZ070
Feedback

Amawalk, NY Regional Weather

Expires:201909171100;;918946
ASUS41 KALY 171010
RWRALY

NEW YORK STATE HOURLY WEATHER ROUNDUP
NATIONAL WEATHER SERVICE ALBANY NY
600 AM EDT TUE SEP 17 2019

NOTE: "FAIR" INDICATES FEW OR NO CLOUDS BELOW 12,000 FEET WITH NO
SIGNIFICANT WEATHER AND/OR NO OBSTRUCTIONS TO VISIBILITY.


NYZ032-033-038>043-046>054-057>066-NYZ062>081-082-084-171100-
EAST

  
CITY           SKY/WX    TMP DP  RH WIND       PRES   REMARKS
ALBANY         FAIR      49  46  90 CALM      30.16R                  
GLENS FALLS    FAIR      40  39  97 CALM      30.14R                  
POUGHKEEPSIE   FAIR      48  46  93 CALM      30.13R                  
NEWBURGH       CLEAR     50  50 100 CALM      30.14                   
MONTGOMERY     FOG       47  47 100 CALM      30.14R VSB 3/4          
WHITE PLAINS   FAIR      54  50  86 N8        30.11R                  
ISLIP          FAIR      53  50  89 NE3       30.10R                  
NEW YORK CITY  FAIR      64  49  57 NE9       30.10R                  
CENTRAL PARK   FAIR      63  47  55 VRB7      30.13R                  
$$


SKY/WX - Weather  TMP - Temperature  DP - Dew Point  RH - Relative Humidity
WIND - Wind Direction/Speed PRES - Barometric Pressure VSB - Visibility
WCI - Wind Chill Index E13G22 Wind - East Wind 13 mph/Gusts of 22 mph